When you browse on this site, cookies collect data to enhance your experience and personalize the content and advertising you see.
Visit our Privacy Policy to learn more. By continuing to use the site, you agree to this use of cookies and data.
  • In Sweden
  • List of Countries
  • For 7 days
  • Water Temperature
  • Satellite Maps
  • Weather Map
  • Weather Widgets
  • user-avatar
    Login

    Hourly Weather Jonkoping

    Today, 19 July, Friday

    Time Temperature Precipitation Wind Pressure Humidity
    00:00 +15°C° 0 mm 1 mps 750 mmHg 72%
    01:00 +15°C° 0 mm 1 mps 750 mmHg 73%
    02:00 +15°C° 0 mm 1 mps 750 mmHg 74%
    03:00 +14°C° 0 mm 1 mps 750 mmHg 74%
    04:00 +14°C° 0 mm 1 mps 750 mmHg 74%
    05:00 +16°C° 0 mm 1 mps 750 mmHg 70%
    06:00 +19°C° 0 mm 1 mps 750 mmHg 65%
    07:00 +20°C° 0 mm 1 mps 750 mmHg 61%
    08:00 +21°C° 0 mm 1 mps 750 mmHg 56%
    09:00 +23°C° 0 mm 1 mps 751 mmHg 51%
    10:00 +24°C° 0 mm 2 mps 751 mmHg 45%
    11:00 +23°C° 0 mm 2 mps 750 mmHg 51%
    12:00 +21°C° 0 mm 2 mps 750 mmHg 57%
    13:00 +20°C° 0 mm 2 mps 750 mmHg 63%
    14:00 +20°C° 0.1 mm 2 mps 750 mmHg 64%
    15:00 +21°C° 0.1 mm 1 mps 750 mmHg 65%
    16:00 +21°C° 0.1 mm 1 mps 750 mmHg 66%
    17:00 +22°C° 0 mm 1 mps 750 mmHg 64%
    18:00 +22°C° 0 mm 1 mps 750 mmHg 63%
    19:00 +22°C° 0 mm 1 mps 750 mmHg 62%
    20:00 +21°C° 0 mm 1 mps 750 mmHg 67%
    21:00 +19°C° 0 mm 1 mps 751 mmHg 73%
    22:00 +16°C° 0 mm 1 mps 751 mmHg 78%
    23:00 +16°C° 0 mm 1 mps 751 mmHg 81%

    Tomorrow, 20 July, Saturday

    Time Temperature Precipitation Wind Pressure Humidity
    00:00 +15°C° 0 mm 1 mps 751 mmHg 83%
    01:00 +15°C° 0 mm 1 mps 751 mmHg 86%
    02:00 +15°C° 0 mm 1 mps 751 mmHg 87%
    03:00 +14°C° 0 mm 2 mps 751 mmHg 89%
    04:00 +14°C° 0 mm 2 mps 751 mmHg 90%
    05:00 +15°C° 0 mm 2 mps 752 mmHg 85%
    06:00 +17°C° 0 mm 2 mps 752 mmHg 80%
    07:00 +18°C° 0 mm 2 mps 752 mmHg 74%
    08:00 +20°C° 0.1 mm 2 mps 752 mmHg 70%
    09:00 +21°C° 0.1 mm 2 mps 752 mmHg 65%
    10:00 +23°C° 0.1 mm 2 mps 752 mmHg 60%
    11:00 +24°C° 0.3 mm 3 mps 752 mmHg 58%
    12:00 +25°C° 0.3 mm 3 mps 752 mmHg 55%
    13:00 +25°C° 0.3 mm 3 mps 752 mmHg 53%
    14:00 +25°C° 0 mm 3 mps 752 mmHg 51%
    15:00 +26°C° 0 mm 2 mps 751 mmHg 49%
    16:00 +26°C° 0 mm 2 mps 751 mmHg 47%
    17:00 +25°C° 0 mm 2 mps 751 mmHg 51%
    18:00 +24°C° 0 mm 2 mps 751 mmHg 55%
    19:00 +24°C° 0 mm 2 mps 751 mmHg 59%
    20:00 +21°C° 0 mm 2 mps 751 mmHg 64%
    21:00 +19°C° 0 mm 2 mps 751 mmHg 69%
    22:00 +18°C° 0 mm 3 mps 751 mmHg 74%
    23:00 +17°C° 0 mm 3 mps 750 mmHg 78%

    Day after tomorrow, 21 July, Sunday

    Time Temperature Precipitation Wind Pressure Humidity
    00:00 +17°C° 0 mm 3 mps 750 mmHg 82%
    01:00 +15°C° 0 mm 4 mps 750 mmHg 85%
    02:00 +15°C° 0 mm 4 mps 750 mmHg 86%
    03:00 +17°C° 0 mm 4 mps 749 mmHg 87%
    04:00 +16°C° 0 mm 5 mps 749 mmHg 88%
    05:00 +17°C° 0 mm 4 mps 749 mmHg 86%
    06:00 +18°C° 0 mm 4 mps 750 mmHg 84%
    07:00 +18°C° 0 mm 4 mps 750 mmHg 82%
    08:00 +20°C° 0 mm 3 mps 750 mmHg 76%
    09:00 +21°C° 0 mm 3 mps 750 mmHg 70%
    10:00 +22°C° 0 mm 3 mps 750 mmHg 64%
    11:00 +24°C° 0.1 mm 3 mps 750 mmHg 62%
    12:00 +24°C° 0.1 mm 3 mps 750 mmHg 60%
    13:00 +25°C° 0.1 mm 3 mps 750 mmHg 58%
    14:00 +25°C° 0.3 mm 3 mps 750 mmHg 60%
    15:00 +25°C° 0.3 mm 3 mps 750 mmHg 61%
    16:00 +24°C° 0.3 mm 3 mps 750 mmHg 63%
    17:00 +22°C° 0.7 mm 3 mps 750 mmHg 71%
    18:00 +21°C° 0.7 mm 3 mps 750 mmHg 79%
    19:00 +19°C° 0.7 mm 2 mps 750 mmHg 88%
    20:00 +18°C° 0.2 mm 3 mps 751 mmHg 91%
    21:00 +17°C° 0.2 mm 3 mps 751 mmHg 94%
    22:00 +16°C° 0.2 mm 3 mps 751 mmHg 97%
    23:00 +16°C° 0 mm 3 mps 751 mmHg 97%

    22 July, Monday

    Time Temperature Precipitation Wind Pressure Humidity
    00:00 +14°C° 0 mm 3 mps 752 mmHg 97%
    01:00 +14°C° 0 mm 3 mps 752 mmHg 97%
    02:00 +14°C° 0 mm 3 mps 752 mmHg 96%
    03:00 +13°C° 0 mm 3 mps 752 mmHg 95%
    04:00 +13°C° 0 mm 4 mps 752 mmHg 94%
    05:00 +14°C° 0 mm 4 mps 753 mmHg 89%
    06:00 +15°C° 0 mm 4 mps 753 mmHg 85%
    07:00 +16°C° 0 mm 5 mps 753 mmHg 80%
    08:00 +17°C° 0 mm 5 mps 753 mmHg 71%
    09:00 +20°C° 0 mm 5 mps 754 mmHg 61%
    10:00 +22°C° 0 mm 5 mps 754 mmHg 52%
    11:00 +23°C° 0 mm 5 mps 754 mmHg 50%
    12:00 +23°C° 0 mm 5 mps 754 mmHg 47%
    13:00 +25°C° 0 mm 5 mps 755 mmHg 45%
    14:00 +25°C° 0 mm 5 mps 755 mmHg 47%
    15:00 +23°C° 0 mm 5 mps 755 mmHg 49%
    16:00 +23°C° 0 mm 5 mps 755 mmHg 51%
    17:00 +22°C° 0 mm 4 mps 755 mmHg 57%
    18:00 +21°C° 0 mm 4 mps 755 mmHg 62%
    19:00 +21°C° 0 mm 3 mps 756 mmHg 67%
    20:00 +19°C° 0 mm 3 mps 756 mmHg 73%
    21:00 +18°C° 0 mm 3 mps 756 mmHg 79%
    22:00 +17°C° 0 mm 3 mps 756 mmHg 86%
    23:00 +17°C° 0 mm 3 mps 757 mmHg 89%

    23 July, Tuesday

    Time Temperature Precipitation Wind Pressure Humidity
    00:00 +16°C° 0 mm 3 mps 757 mmHg 92%
    01:00 +16°C° 0 mm 3 mps 757 mmHg 95%
    02:00 +16°C° 0 mm 3 mps 757 mmHg 95%
    03:00 +16°C° 0 mm 2 mps 757 mmHg 95%
    04:00 +16°C° 0 mm 2 mps 757 mmHg 95%
    05:00 +17°C° 0 mm 3 mps 757 mmHg 92%
    06:00 +18°C° 0 mm 3 mps 757 mmHg 89%
    07:00 +18°C° 0 mm 3 mps 757 mmHg 86%
    08:00 +20°C° 0 mm 3 mps 757 mmHg 78%
    09:00 +22°C° 0 mm 3 mps 757 mmHg 69%
    10:00 +25°C° 0 mm 3 mps 757 mmHg 61%
    11:00 +26°C° 0 mm 3 mps 757 mmHg 57%
    12:00 +27°C° 0 mm 3 mps 757 mmHg 53%
    13:00 +28°C° 0 mm 3 mps 757 mmHg 49%
    14:00 +29°C° 0 mm 3 mps 757 mmHg 49%
    15:00 +29°C° 0 mm 4 mps 756 mmHg 48%
    16:00 +29°C° 0 mm 4 mps 756 mmHg 48%
    17:00 +28°C° 0 mm 3 mps 756 mmHg 53%
    18:00 +27°C° 0 mm 3 mps 756 mmHg 59%
    19:00 +25°C° 0 mm 2 mps 756 mmHg 64%
    20:00 +23°C° 0 mm 2 mps 756 mmHg 72%
    21:00 +20°C° 0 mm 2 mps 756 mmHg 80%
    22:00 +18°C° 0 mm 2 mps 757 mmHg 88%
    23:00 +18°C° 0 mm 2 mps 757 mmHg 90%

    24 July, Wednesday

    Time Temperature Precipitation Wind Pressure Humidity
    00:00 +18°C° 0 mm 1 mps 757 mmHg 92%
    01:00 +16°C° 0 mm 1 mps 757 mmHg 94%
    02:00 +16°C° 0 mm 1 mps 757 mmHg 93%
    03:00 +16°C° 0 mm 1 mps 757 mmHg 93%
    04:00 +15°C° 0 mm 1 mps 757 mmHg 92%
    05:00 +18°C° 0 mm 1 mps 757 mmHg 84%
    06:00 +20°C° 0 mm 1 mps 757 mmHg 75%
    07:00 +22°C° 0 mm 1 mps 757 mmHg 67%
    08:00 +25°C° 0 mm 1 mps 757 mmHg 59%
    09:00 +27°C° 0 mm 1 mps 757 mmHg 51%
    10:00 +29°C° 0 mm 1 mps 757 mmHg 43%
    11:00 +30°C° 0 mm 1 mps 757 mmHg 40%
    12:00 +31°C° 0 mm 1 mps 756 mmHg 37%
    13:00 +32°C° 0 mm 1 mps 756 mmHg 34%
    14:00 +32°C° 0 mm 1 mps 756 mmHg 34%
    15:00 +32°C° 0 mm 1 mps 756 mmHg 34%
    16:00 +32°C° 0 mm 1 mps 756 mmHg 35%
    17:00 +31°C° 0 mm 1 mps 755 mmHg 41%
    18:00 +30°C° 0 mm 1 mps 755 mmHg 48%
    19:00 +28°C° 0 mm 1 mps 755 mmHg 54%
    20:00 +26°C° 0 mm 1 mps 755 mmHg 61%
    21:00 +24°C° 0 mm 1 mps 755 mmHg 68%
    22:00 +22°C° 0 mm 1 mps 756 mmHg 74%
    23:00 +22°C° 0 mm 1 mps 756 mmHg 76%
    Show more